Tracking 27111 objects as of 28-Mar-2023
HD Live streaming from Space Station
objects crossing your sky now

LEMUR 2 NOGUECORREIG

Track LEMUR 2 NOGUECORREIG now!
10-day predictions
LEMUR 2 NOGUECORREIG is classified as:


NORAD ID: 41996
Int'l Code: 2017-008BA
Perigee: 385.4 km
Apogee: 391.6 km
Inclination: 97.2 °
Period: 92.2 minutes
Semi major axis: 6759 km
RCS: Unknown
Launch date: February 15, 2017
Source: United States (US)
Launch site: SRIHARIKOTA (SRI)
Your satellite tracking list
Your tracking list is empty




NASA's NSSDC Master Catalog

Two Line Element Set (TLE):
1 41996U 17008BA  23087.27253718  .00188597  00000-0  21034-2 0  9990
2 41996  97.2276 156.8448 0004557 264.3170  95.7569 15.62176576340053
Source of the keplerian elements: AFSPC